User: anonymous   Login
Location: Unspecified
(0.0000°N, 0.0000°E)
Time: 20:35:03
(UTC+00:00)
Language:

GSAT 7 - Orbit

View from above orbital plane
View from above orbital plane
View from above satellite
View from above satellite

Ground track
Ground track

The orbit data is extracted from the following two-line orbital elements,

1 39234U 13044B   17327.61991924 -.00000072 +00000-0 +00000-0 0  9994
2 39234 000.0817 108.3423 0004668 154.0571 097.5764 01.00273154013990
Epoch (UTC): 23 November 2017 14:52:41
Eccentricity: 0.0004668
inclination: 0.0817°
perigee height: 35766 km
apogee height: 35805 km
right ascension of ascending node: 108.3423°
argument of perigee: 154.0571°
revolutions per day: 1.00273154
mean anomaly at epoch: 97.5764°
orbit number at epoch: 1399

The dashed part of the orbit path shows where the satellite is in the earth's shadow,  

DLR